Location: Newark
(25.6108°S, 54.5803°W)
Time: 10:11:27
(UTC+00:00)

deb Explorer IX - Pass Details

Date: 31 October 2020
Orbit: 538 x 1104 km, 38.8° (Epoch: 23 November)

Event Time Altitude Azimuth Distance (km) Brightness Sun altitude
Rises 16:29:25 0° 337° (NNW) 3,845 ? 70.6°
Reaches altitude 10° 16:32:50 10° 350° (N) 2,836 ? 70.0°
Maximum altitude 16:38:04 23° 40° (NE) 1,930 ? 68.9°
Drops below altitude 10° 16:42:53 10° 90° (E) 2,581 ? 68.0°
Sets 16:45:48 0° 104° (ESE) 3,422 ? 67.4°
